Погода в Малоярославеце

Погода в Малоярославеце : погода сейчас, прогноз погоды и архив. Всё, что Вы хотите узнать о погоде в Малоярославеце!

Хотите узнать прогноз погоды в Малоярославеце? Тогда Вам сюда: Погода в Малоярославеце

Поиск расширенной информации на нашем сайте:

Другие новости

Новости СМИ2

Главная страница сайта

Новости сайта

03.07.2017

Напоминаем, что на нашем специализированном сайте Метеоцентр.Азия вы можете получить высокодетализированные автоматические прогнозы погоды по пунктам России, СНГ и мира в авиационном формате (включающие направление и скорость ветра, видимость, явления погоды, количество и форму облачности, нижнюю и верхнюю границу облачности).


Погода в Малоярославеце - сегодня

Время (UTC), дата Ветер
(°,м/с) 
Видим.   Явления Облачность Т
(°С)
Тd
(°С)
f(%) Тe
(°С)
Pmin
(гПа)
dP
(гПа)
Po
(мм)
O2
(г/м3)
Тmin Tmax R s Состояние
почвы
12 20.10.17 290 (З) 20000 м    6/6 600 м 
[Cu Sc]
+7.1 -1.4 55 +7  1022.2  -0.6  749  294           
15 20.10.17 190 (Ю) 20000 м    5/0 средняя 
[Ac trans]
+2.3 -1 79 +3  1022.3  -0.4  748  299           
18 20.10.17 210 (ЮЗ) н/о    8/6 500 м средняя 
[Sc|Ac trans]
+1.1 -0.9 86 +2  1022.4  748  300    +7.3       
21 20.10.17 200 (Ю) н/о    6/4 630 м средняя 
[Sc|Ac trans]
+1.8 +0.2 89 +3  1022.4  748  299           
00 21.10.17 230 (ЮЗ) н/о    9/6 570 м средняя 
[Sc|Ac trans]
-1.3 -1.9 96 -1  1021.9  -0.6  748  303           
03 21.10.17 300 (СЗ) н/о    9/0 средняя 
[Ac trans]
+0.5 +0.2 98 +1  1021.3  -0.4  747  301  -1.6         
06 21.10.17 290 (З) 1000 м  в посл. час туман  10/10 180 м 
[Frnb]
+0.8 +0.5 98 1021.5  0.2  748  300  -1.6        влажная 
09 21.10.17 340 (С) 10 км    9/9 540 м 
[Sc]
+2.5 +0.1 84 +2  1021.3  748  298           
12 21.10.17 290 (З) 20000 м    8/8 800 м 
[Sc]
+3.4 -0.7 74 +3  1020.2  -1.1  747  297           
15 21.10.17 300 (СЗ) 10 км    9/0 средняя 
[Ac trans]
+1.7 -0.8 83 +2  1019.9  -0.4  746  299           
18 21.10.17 350 (С) н/о    6/0 средняя 
[Ac trans]
+0.3 -2.7 80 1020  746  301    +4.4       
21 21.10.17 010 (С) н/о    9/0 средняя 
[Ac trans]
-0.3 -2.7 84 -1  1020.1  746  301           
00 22.10.17 360 (С) н/о    ясно 
-1.9 -3.5 89 -1  1020  -0.2  746  303           
03 22.10.17 340 (С) н/о    ясно 
-3.2 -4.2 93 -3  1020.2  746  305  -3.2         
06 22.10.17 340 (С) 20000 м    3/0 средняя 
[Ac trans]
-1.9 -3.2 91 -1  1020.7  0.7  747  303  -4        замёрзшая 
09 22.10.17 280 (З) 20000 м    6/6 600 м 
[Cu Sc]
+1.3 -3.6 70 +2  1020.5  0.1  747  300           
12 22.10.17 280 (З) 20000 м    1/1 600 м 
[Cu hum]
+3 -5.8 52 +2  1019.6  -0.8  746  298           
15 22.10.17 210 (ЮЗ) 20000 м    ясно 
-1.5 -5.1 76 -1  1019.5  -0.5  746  303           
18 22.10.17 220 (ЮЗ) н/о    3/0 верхняя 
[Ci fib]
-2.4 -5.4 80 -3  1019.6  746  304    +3.1       
21 22.10.17 210 (ЮЗ) н/о    3/0 верхняя 
[Ci fib]
-3.1 -5.9 81 -3  1019.7  746  305           
00 23.10.17 220 (ЮЗ) н/о    4/0 средняя 
[Ac trans]
-2.2 -5.6 77 -2  1018.9  -0.7  745  303           
03 23.10.17 240 (ЮЗ) н/о    8/0 средняя 
[Ac trans]
-1.3 -5.3 74 -1  1019.1  0.3  746  302  -3.5         
06 23.10.17 230 (ЮЗ) 20000 м  {ливн. осадки}  10/10 600 м 
[Sc]
-0.8 -3.6 81 -2  1020.3  1.3  747  302  -3.2    0.2  <0.5  сухой снег
50-90% 
09 23.10.17 290 (З) 20000 м    9/9 500 м 
[Sc]
+1.1 -2.1 79 1021.1  747  300           
12 23.10.17 250 (З) 20000 м  {ливн. осадки}  5/5 300 м 
[Sc]
+0.8 -2.5 79 +1  1022.2  748  301           
Время (UTC), дата Ветер
(°,м/с) 
Видим.   Явления Облачность Т
(°С)
Тd
(°С)
f(%) Тe
(°С)
Pmin
(гПа)
dP
(гПа)
Po
(мм)
O2
(г/м3)
Тmin Tmax R s Состояние
почвы

Для получения пояснительной информации подведите курсор к названию столбца.

ПОГОДА в Малоярославеце - архив

Всё, что Вы хотите узнать о погоде в Малоярославеце - удобно и подробно!

Выберите нужную дату (начиная с 1 января 2015* года) и нажмите кнопку "Найти".
Будут отображены архивные сводки погоды по пункту Малоярославец, начиная с указанной даты.


Отображать данные в формате CSV (для использования в таблицах Excel)


Внимание! Наш архив погоды предназначен исключительно для личного некоммерческого использования в познавательных целях. Если Вам необходимы официальные справки о состоянии погоды (для производственных, юридических, коммерческих и т.п. целей), обращайтесь в органы Росгидромета.

*Примечание: данная дата относится к архиву по метеостанциям СССР (Россия, СНГ, Балтия).
Архив по метеостанциям Зарубежной Европы и Азии (кроме Китая) хранится 10 дней, по другим регионам земного шара (Китай, Африка, Америка, Австралия, Океания) - 1 день.

Малоярославец - район местоположения метеостанции


Название, широта, долгота, высота метеостанции:
Малоярославец 55°ш. 36.5°д. 197 м над ур. моря [Российская Федерация]

Дополнительная информация

В oтличие oт бoльшинства пoгoдных сайтoв мы публикуем пoдрoбную метеoинфoрмацию в детальнoм прoфессиoнальнoм фoрмате.

Характеристики температуры и влажнoсти вoздуха измеряются на высoте 2 м в тени вдали oт зданий и деревьев.
Скoрoсть ветра измеряется на высoте 10 м (на урoвне рoста челoвека скoрoсть ветра ниже в 1.5-2 раза). Если метеoстанция нахoдится в гoрoде или в лесу, тo скoрoсть ветра занижена на 2-4 м/с пo сравнению с oткрытым местoм. Скoрoсть ветра над акватoриями крупных рек и oзёр, а также на вершинах хoлмoв на 2-5 м/с выше, чем в oбычных услoвиях.
Атмoсфернoе давление в разных тoчках местнoсти мoжет значительнo oтличаться oт давления на метеoстанции, в зависимoсти oт услoвий рельефа (при пoдъёме на 10 м давление пoнижается примернo на 1 мм рт.ст.).